{"data":{"norad_id":54783,"epoch":"2026-09-20T12:28:19.880256Z","epoch_age_seconds":88165,"freshness":"FRESH","line1":"1 54783U 22175AB  26263.51967454  .00000444  00000+0  26060-4 0  9993","line2":"2 54783  53.1596 219.7204 0001255  95.7291 264.3854 15.31701649209740","mean_motion":15.31701649,"eccentricity":0.0001255,"inclination_deg":53.1596,"raan_deg":219.7204,"arg_perigee_deg":95.7291,"mean_anomaly_deg":264.3854,"bstar":2.606e-5,"rev_number":20974,"period_min":94.013086748332,"perigee_km":469.87554620087,"apogee_km":471.59461309286,"semimajor_km":6848.8720796469,"source":"CELESTRAK","updated_at":"2026-09-21T09:00:33.125247Z"}}